Portada
METAR-TAF:

METAR-TAF

Aeropuertos :

Middleton Field

Evergreen, Alabama, Estados Unidos

latitud: 31-25-08N, longitud: 087-02-53W, altitud: 78 m

Observación

El informe se hizo hace 41 minutos, a las 19:53 UTC
Viento 8 kt del oeste
Temperatura 29°C
Humedad 62%
Presión 1012 hPa
Visibilidad: 16.1 km
Escasas nubes a una altura de 2800 ft
Nubes dispersas a una altura de 6000 ft

METAR: KGZH 081953Z AUTO 26008KT 10SM FEW028 SCT060 29/21 A2988 RMK AO2 SLP113 T02890206

Hora: 15:34 (20:34 UTC)


TAF: falta

Observaciones y pronósticos meteorológicos de más de 4000 aeropuertos (mensajes METAR y TAF).

Los puntos amarillos y rojos representan las estaciones disponibles.

Ponga el ratón en el punto deseado para ver el nombre de la estación.

Haga clic para ver las observaciones y los pronósticos meteorológicos.

Para cambiar el mapa : haga clic en los botones verdes con una cruz de color negro para hacer un zoom, en el botón verde con un guión para alejar o en las flechas verdes para mapas adyacentes.


METAR-TAF: